FW5669 Weather Reports


Display with metric or nautical units.
time (UTC)temp
F
wind
direction
speed
MPH
gust
MPH
rain 1hr
in
rain 24hr
in
rain mn
in
humidity
%
barometer
mb
20260506073114 54 44 0.0 0.0 0.00 0.03 0.00 92 1020.5
20260506071601 55 44 0.0 0.0 0.00 0.03 0.00 91 1020.4
20260506061502 55 44 0.0 0.0 0.00 0.06 0.03 91 1020.3
20260506044501 56 44 0.0 0.0 0.00 0.32 0.03 88 1019.5
20260506043103 56 44 0.0 0.0 0.00 0.32 0.03 87 1019.4
20260506041501 56 44 0.0 1.0 0.00 0.32 0.03 86 1019.3
20260506040003 56 44 0.0 0.0 0.00 0.67 0.03 86 1019.1
20260506034604 56 44 0.0 1.0 0.00 0.67 0.03 85 1018.9
20260506033120 56 55 0.0 1.0 0.00 0.67 0.03 86 1018.7
20260506031600 56 61 0.0 1.0 0.00 0.67 0.03 85 1018.7
20260506030104 57 98 0.0 1.0 0.00 0.67 0.03 84 1018.6
20260506024615 57 98 0.0 2.0 0.00 0.88 0.03 83 1018.4
20260506023106 57 77 0.0 1.0 0.00 0.88 0.03 84 1018.0
20260506021602 58 43 0.0 1.0 0.00 0.88 0.03 82 1018.1
20260506020100 58 37 0.0 2.0 0.00 0.88 0.03 82 1017.7
20260506020002 58 37 0.0 2.0 0.00 0.88 0.03 82 1017.7
20260506014501 58 60 1.0 4.0 0.00 0.98 0.03 80 1017.7
20260506013002 58 40 0.0 4.0 0.00 0.98 0.03 80 1017.5
20260506011502 58 52 1.0 6.0 0.00 0.98 0.03 80 1017.7
20260506010120 58 42 1.0 3.0 0.00 0.98 0.03 80 1017.4
20260506004559 58 81 0.0 2.0 0.00 1.10 0.03 79 1017.6
20260506003101 58 77 0.0 1.0 0.00 1.10 0.03 80 1017.5
20260506001602 58 77 0.0 2.0 0.00 1.10 0.03 80 1017.5
20260506000002 58 216 0.0 1.0 0.00 1.10 0.03 83 1017.3
20260505234502 57 216 0.0 2.0 0.00 1.20 0.03 81 1017.4
20260505233101 57 202 0.0 1.0 0.00 1.20 0.03 83 1017.4
20260505231601 57 174 0.0 2.0 0.00 1.20 0.03 81 1017.4
20260505230004 58 314 0.0 2.0 0.00 1.20 0.03 81 1017.4
20260505224601 58 273 0.0 2.0 0.00 1.32 0.03 81 1017.5
20260505223001 58 249 0.0 3.0 0.00 1.32 0.03 81 1017.5
20260505221606 58 176 0.0 3.0 0.00 1.32 0.03 82 1017.6
20260505221502 58 172 1.0 3.0 0.00 1.32 0.03 81 1017.6
20260505220108 58 179 0.0 2.0 0.00 1.32 0.03 81 1017.8
20260505220001 58 177 0.0 2.0 0.00 1.32 0.03 81 1017.7
20260505214503 58 233 0.0 2.0 0.00 1.42 0.03 82 1017.9
20260505213100 58 172 0.0 2.0 0.00 1.42 0.03 81 1018.1
20260505213002 58 178 1.0 2.0 0.00 1.42 0.03 82 1018.2
20260505211600 57 202 0.0 2.0 0.00 1.42 0.03 82 1018.1
20260505210100 57 273 0.0 2.0 0.00 1.42 0.03 82 1018.0
20260505204611 56 273 0.0 2.0 0.00 1.46 0.03 83 1017.9
20260505203108 56 233 0.0 2.0 0.00 1.46 0.03 84 1017.8
20260505201600 56 156 0.0 3.0 0.00 1.46 0.03 84 1018.1
20260505200100 56 229 0.0 2.0 0.00 1.46 0.03 84 1018.1
20260505200002 56 233 0.0 2.0 0.00 1.46 0.03 84 1018.1
20260505194501 56 196 0.0 2.0 0.00 1.47 0.03 84 1018.0
20260505193100 56 189 1.0 3.0 0.00 1.47 0.03 83 1018.1
20260505193001 56 195 1.0 3.0 0.00 1.47 0.03 82 1018.1
20260505191601 57 170 0.0 3.0 0.00 1.47 0.03 82 1018.0
20260505190002 57 179 2.0 3.0 0.00 1.47 0.03 82 1017.9
20260505184600 56 227 0.0 2.0 0.00 1.47 0.03 84 1017.9
20260505183108 56 189 0.0 2.0 0.00 1.47 0.03 84 1017.9
20260505181615 56 251 1.0 2.0 0.00 1.47 0.03 81 1017.8
20260505180100 55 288 0.0 2.0 0.00 1.47 0.03 83 1017.7
20260505180002 55 289 0.0 2.0 0.00 1.47 0.03 84 1017.7
20260505174502 55 236 0.0 2.0 0.00 1.47 0.03 83 1017.6
20260505173002 54 177 0.0 3.0 0.00 1.47 0.03 86 1017.5
20260505171502 53 185 0.0 2.0 0.00 1.47 0.03 90 1017.6
20260505170001 52 278 1.0 2.0 0.00 1.47 0.03 92 1017.6
20260505164604 52 133 0.0 1.0 0.00 1.47 0.03 94 1017.6
20260505163059 51 55 0.0 2.0 0.00 1.47 0.03 94 1017.7
20260505161604 51 60 0.0 2.0 0.00 1.47 0.03 94 1017.4
20260505153115 49 27 0.0 1.0 0.00 1.47 0.03 95 1017.4
20260505151600 49 85 0.0 2.0 0.00 1.47 0.03 95 1017.3
20260505151500 49 77 0.0 2.0 0.00 1.47 0.03 95 1017.2
20260505140107 49 33 0.0 1.0 0.00 1.47 0.03 96 1016.6
20260505124612 49 40 0.0 1.0 0.00 1.47 0.03 96 1016.2
20260505124501 49 40 0.0 1.0 0.00 1.47 0.03 96 1016.2
20260505123102 49 48 0.0 2.0 0.00 1.47 0.03 96 1016.1
20260505121600 49 75 0.0 1.0 0.00 1.47 0.03 96 1016.2
20260505120108 49 58 0.0 2.0 0.00 1.47 0.03 96 1016.0
20260505114559 49 62 0.0 1.0 0.00 1.47 0.03 96 1016.1
20260505113115 49 68 1.0 2.0 0.00 1.47 0.03 96 1016.3
20260505111559 49 64 0.0 2.0 0.00 1.47 0.03 96 1016.4
20260505101559 49 29 1.0 4.0 0.00 1.47 0.03 96 1016.5
20260505094600 49 24 1.0 3.0 0.00 1.47 0.03 95 1016.5
20260505093107 49 63 1.0 3.0 0.00 1.47 0.03 95 1016.6
20260505091559 49 58 1.0 3.0 0.00 1.47 0.03 96 1016.7
20260505090101 49 51 0.0 2.0 0.00 1.47 0.03 96 1016.9
20260505084559 49 55 1.0 3.0 0.00 1.47 0.03 96 1017.1
20260505083104 49 75 1.0 5.0 0.00 1.47 0.03 96 1017.3
20260505081559 49 68 0.0 2.0 0.00 1.47 0.03 96 1017.3